• In Belarus
  • List of Countries
  • For 7 days
  • Water Temperature
  • Satellite Maps
  • Weather Map
  • Weather Widgets
  • user-avatar
    Login

    Hourly Weather Berat

    Today, 21 November, Tuesday

    Time Temperature Precipitation Wind Pressure Humidity
    00:00 +6°C° 0 mm 1 mps 748 mmHg 66%
    01:00 +6°C° 0 mm 1 mps 747 mmHg 66%
    02:00 +5°C° 0 mm 1 mps 748 mmHg 64%
    03:00 +4°C° 0 mm 2 mps 748 mmHg 63%
    04:00 +4°C° 0 mm 2 mps 748 mmHg 61%
    05:00 +4°C° 0 mm 2 mps 748 mmHg 59%
    06:00 +5°C° 0 mm 2 mps 748 mmHg 57%
    07:00 +5°C° 0 mm 2 mps 748 mmHg 55%
    08:00 +7°C° 0 mm 2 mps 748 mmHg 50%
    09:00 +8°C° 0 mm 2 mps 749 mmHg 44%
    10:00 +11°C° 0 mm 1 mps 749 mmHg 38%
    11:00 +12°C° 0 mm 2 mps 749 mmHg 38%
    12:00 +12°C° 0 mm 2 mps 748 mmHg 38%
    13:00 +13°C° 0 mm 2 mps 748 mmHg 37%
    14:00 +12°C° 0 mm 1 mps 748 mmHg 42%
    15:00 +11°C° 0 mm 1 mps 748 mmHg 48%
    16:00 +10°C° 0 mm 1 mps 748 mmHg 53%
    17:00 +9°C° 0 mm 1 mps 748 mmHg 54%
    18:00 +8°C° 0 mm 1 mps 748 mmHg 55%
    19:00 +8°C° 0 mm 1 mps 749 mmHg 56%
    20:00 +8°C° 0 mm 1 mps 749 mmHg 55%
    21:00 +7°C° 0 mm 1 mps 749 mmHg 54%
    22:00 +7°C° 0 mm 1 mps 749 mmHg 53%
    23:00 +7°C° 0 mm 1 mps 749 mmHg 52%

    Tomorrow, 22 November, Wednesday

    Time Temperature Precipitation Wind Pressure Humidity
    00:00 +7°C° 0 mm 1 mps 749 mmHg 51%
    01:00 +7°C° 0 mm 1 mps 749 mmHg 51%
    02:00 +7°C° 0 mm 1 mps 749 mmHg 51%
    03:00 +7°C° 0 mm 1 mps 749 mmHg 52%
    04:00 +7°C° 0 mm 1 mps 749 mmHg 52%
    05:00 +7°C° 0 mm 1 mps 749 mmHg 54%
    06:00 +8°C° 0 mm 1 mps 749 mmHg 55%
    07:00 +8°C° 0 mm 1 mps 749 mmHg 57%
    08:00 +10°C° 0 mm 1 mps 749 mmHg 54%
    09:00 +12°C° 0 mm 1 mps 749 mmHg 51%
    10:00 +14°C° 0 mm 1 mps 749 mmHg 48%
    11:00 +14°C° 0 mm 1 mps 749 mmHg 48%
    12:00 +15°C° 0 mm 1 mps 749 mmHg 49%
    13:00 +16°C° 0 mm 1 mps 748 mmHg 49%
    14:00 +14°C° 0 mm 1 mps 748 mmHg 55%
    15:00 +13°C° 0 mm 1 mps 748 mmHg 60%
    16:00 +12°C° 0 mm 1 mps 748 mmHg 66%
    17:00 +11°C° 0 mm 1 mps 748 mmHg 68%
    18:00 +11°C° 0 mm 1 mps 748 mmHg 70%
    19:00 +10°C° 0 mm 1 mps 749 mmHg 72%
    20:00 +10°C° 0 mm 1 mps 749 mmHg 71%
    21:00 +10°C° 0 mm 1 mps 749 mmHg 71%
    22:00 +10°C° 0 mm 1 mps 749 mmHg 70%
    23:00 +10°C° 0 mm 1 mps 749 mmHg 69%

    Day after tomorrow, 23 November, Thursday

    Time Temperature Precipitation Wind Pressure Humidity
    00:00 +9°C° 0 mm 1 mps 749 mmHg 68%
    01:00 +9°C° 0 mm 1 mps 749 mmHg 68%
    02:00 +9°C° 0 mm 1 mps 749 mmHg 67%
    03:00 +9°C° 0 mm 1 mps 748 mmHg 66%
    04:00 +9°C° 0 mm 1 mps 748 mmHg 65%
    05:00 +9°C° 0 mm 1 mps 748 mmHg 64%
    06:00 +9°C° 0 mm 1 mps 749 mmHg 63%
    07:00 +9°C° 0 mm 1 mps 749 mmHg 62%
    08:00 +11°C° 0 mm 1 mps 749 mmHg 56%
    09:00 +13°C° 0 mm 1 mps 749 mmHg 51%
    10:00 +16°C° 0 mm 1 mps 749 mmHg 45%
    11:00 +16°C° 0 mm 1 mps 749 mmHg 44%
    12:00 +18°C° 0 mm 1 mps 749 mmHg 44%
    13:00 +18°C° 0 mm 1 mps 748 mmHg 44%
    14:00 +16°C° 0 mm 1 mps 748 mmHg 50%
    15:00 +15°C° 0 mm 1 mps 748 mmHg 56%
    16:00 +13°C° 0 mm 1 mps 748 mmHg 62%
    17:00 +13°C° 0 mm 1 mps 749 mmHg 64%
    18:00 +12°C° 0 mm 1 mps 749 mmHg 66%
    19:00 +11°C° 0 mm 1 mps 749 mmHg 68%
    20:00 +11°C° 0 mm 1 mps 749 mmHg 67%
    21:00 +11°C° 0 mm 1 mps 750 mmHg 66%
    22:00 +11°C° 0 mm 1 mps 750 mmHg 65%
    23:00 +10°C° 0 mm 1 mps 750 mmHg 64%

    24 November, Friday

    Time Temperature Precipitation Wind Pressure Humidity
    00:00 +10°C° 0 mm 1 mps 750 mmHg 63%
    01:00 +10°C° 0 mm 1 mps 750 mmHg 62%
    02:00 +10°C° 0 mm 1 mps 750 mmHg 61%
    03:00 +10°C° 0 mm 1 mps 749 mmHg 61%
    04:00 +10°C° 0 mm 1 mps 749 mmHg 60%
    05:00 +9°C° 0 mm 1 mps 750 mmHg 60%
    06:00 +9°C° 0 mm 1 mps 750 mmHg 59%
    07:00 +9°C° 0 mm 1 mps 750 mmHg 59%
    08:00 +12°C° 0 mm 1 mps 750 mmHg 54%
    09:00 +14°C° 0 mm 1 mps 750 mmHg 49%
    10:00 +15°C° 0 mm 0 mps 750 mmHg 44%
    11:00 +16°C° 0 mm 1 mps 750 mmHg 44%
    12:00 +18°C° 0 mm 1 mps 750 mmHg 45%
    13:00 +17°C° 0 mm 2 mps 749 mmHg 45%
    14:00 +16°C° 0 mm 2 mps 749 mmHg 52%
    15:00 +15°C° 0 mm 2 mps 749 mmHg 60%
    16:00 +14°C° 0 mm 2 mps 749 mmHg 67%
    17:00 +13°C° 0 mm 2 mps 750 mmHg 70%
    18:00 +12°C° 0 mm 1 mps 750 mmHg 73%
    19:00 +11°C° 0 mm 1 mps 750 mmHg 77%
    20:00 +11°C° 0 mm 1 mps 751 mmHg 75%
    21:00 +11°C° 0 mm 1 mps 751 mmHg 73%
    22:00 +11°C° 0 mm 1 mps 751 mmHg 71%
    23:00 +10°C° 0 mm 1 mps 751 mmHg 71%

    25 November, Saturday

    Time Temperature Precipitation Wind Pressure Humidity
    00:00 +10°C° 0 mm 1 mps 751 mmHg 70%
    01:00 +10°C° 0 mm 1 mps 751 mmHg 69%
    02:00 +10°C° 0 mm 1 mps 751 mmHg 69%
    03:00 +10°C° 0 mm 1 mps 751 mmHg 70%
    04:00 +10°C° 0 mm 1 mps 751 mmHg 70%
    05:00 +10°C° 0 mm 1 mps 751 mmHg 71%
    06:00 +9°C° 0 mm 1 mps 751 mmHg 72%
    07:00 +8°C° 0 mm 2 mps 751 mmHg 72%
    08:00 +12°C° 0 mm 1 mps 752 mmHg 66%
    09:00 +14°C° 0 mm 1 mps 752 mmHg 60%
    10:00 +16°C° 0 mm 1 mps 752 mmHg 55%
    11:00 +16°C° 0 mm 1 mps 752 mmHg 52%
    12:00 +18°C° 0 mm 1 mps 751 mmHg 49%
    13:00 +19°C° 0 mm 1 mps 751 mmHg 47%
    14:00 +16°C° 0 mm 1 mps 751 mmHg 53%
    15:00 +15°C° 0 mm 1 mps 751 mmHg 59%
    16:00 +14°C° 0 mm 1 mps 751 mmHg 65%
    17:00 +13°C° 0 mm 1 mps 751 mmHg 68%
    18:00 +12°C° 0 mm 1 mps 752 mmHg 70%
    19:00 +12°C° 0 mm 1 mps 752 mmHg 73%
    20:00 +11°C° 0 mm 1 mps 752 mmHg 73%
    21:00 +11°C° 0 mm 1 mps 752 mmHg 74%
    22:00 +11°C° 0 mm 1 mps 753 mmHg 74%
    23:00 +11°C° 0 mm 1 mps 753 mmHg 74%

    26 November, Sunday

    Time Temperature Precipitation Wind Pressure Humidity
    00:00 +10°C° 0 mm 1 mps 753 mmHg 74%
    01:00 +10°C° 0 mm 1 mps 752 mmHg 74%
    02:00 +10°C° 0 mm 1 mps 752 mmHg 74%
    03:00 +10°C° 0 mm 1 mps 752 mmHg 74%
    04:00 +10°C° 0 mm 1 mps 752 mmHg 73%
    05:00 +10°C° 0 mm 1 mps 752 mmHg 73%
    06:00 +9°C° 0 mm 1 mps 752 mmHg 72%
    07:00 +8°C° 0 mm 2 mps 752 mmHg 72%
    08:00 +11°C° 0 mm 1 mps 752 mmHg 65%
    09:00 +13°C° 0 mm 1 mps 752 mmHg 59%
    10:00 +15°C° 0 mm 1 mps 753 mmHg 52%
    11:00 +16°C° 0 mm 2 mps 752 mmHg 51%
    12:00 +16°C° 0 mm 2 mps 752 mmHg 50%
    13:00 +17°C° 0 mm 2 mps 751 mmHg 49%
    14:00 +16°C° 0 mm 2 mps 751 mmHg 56%
    15:00 +15°C° 0 mm 2 mps 751 mmHg 63%
    16:00 +14°C° 0 mm 1 mps 750 mmHg 69%
    17:00 +13°C° 0 mm 2 mps 750 mmHg 73%
    18:00 +12°C° 0 mm 2 mps 750 mmHg 77%
    19:00 +10°C° 0 mm 2 mps 751 mmHg 80%
    20:00 +10°C° 0 mm 2 mps 751 mmHg 82%
    21:00 +10°C° 0 mm 2 mps 751 mmHg 84%
    22:00 +9°C° 0 mm 2 mps 750 mmHg 86%
    23:00 +9°C° 0 mm 2 mps 750 mmHg 86%
    Show more